Bakersfield, CA

6:21 PM PDT on July 22, 2017 (GMT -0700)
Meadows

Weather History for KBFL - March, 2012

Change the Weather History Date:

Thursday, March 22, 2012

  Actual Average Record
Temperature  
Mean Temperature 63 °F 58 °F  
Max Temperature 75 °F 70 °F 86 °F (1915)
Min Temperature 50 °F 47 °F 32 °F (1935)
Degree Days  
Heating Degree Days 2    
Month to date heating degree days 170  
Since 1 July heating degree days 1851  
Cooling Degree Days 0    
Month to date cooling degree days 0  
Year to date cooling degree days 0  
Growing Degree Days 12 (Base 50)    
Moisture  
Dew Point 47 °F    
Average Humidity 61    
Maximum Humidity 80    
Minimum Humidity 41    
Precipitation  
Precipitation 0.00 in 0.03 in 0.99 in (1939)
Month to date precipitation 0.96 0.91  
Year to date precipitation 1.69 3.31  
Since 1 July precipitation 3.00  
Snow  
Snow 0.00 in - - ()
Month to date snowfall 0.0  
Since 1 July snowfall 0.0  
Snow Depth 0.00 in    
Sea Level Pressure  
Sea Level Pressure 29.90 in    
Wind  
Wind Speed 7 mph (NNW)    
Max Wind Speed 17 mph    
Max Gust Speed 20 mph    
Visibility 9 miles    
Events      
T = Trace of Precipitation, MM = Missing Value Source: NWS Daily Summary

Daily Weather History Graph

Daily Weather History Graph

Search for Another Location

Airport or City:

Trip Planner

Search our weather history database for the weather conditions in past years. The results will help you decide how hot, cold, wet, or windy it might be!

Date:

Astronomy

Mar. 22, 2012 Rise Set
Actual Time 6:56 AM PDT 7:10 PM PDT
Civil Twilight 6:30 AM PDT 7:35 PM PDT
Nautical Twilight 6:01 AM PDT 8:05 PM PDT
Astronomical Twilight 5:30 AM PDT 8:35 PM PDT
Moon 6:39 AM PDT (3/22) 7:36 PM PDT (3/22)
Length of Visible Light 13h 04m
Length of Day
12h 13m
New Moon, 0% of the Moon is Illuminated
Mar 22
New Moon
Mar 30
First Quarter
Apr 6
Full
Apr 13
Last Quarter
Apr 21
New

Hourly Weather History & Observations

Time (PDT) Temp. Dew Point Humidity Pressure Visibility Wind Dir Wind Speed Gust Speed Precip Events Conditions
12:54 AM 55.0 °F 46.9 °F 74% 29.96 in 10.0 mi Calm Calm - N/A   Clear
1:54 AM 55.0 °F 45.0 °F 69% 29.94 in 10.0 mi Calm Calm - N/A   Clear
2:54 AM 54.0 °F 44.1 °F 69% 29.92 in 9.0 mi ENE 3.5 mph - N/A   Clear
3:54 AM 53.1 °F 44.1 °F 71% 29.91 in 9.0 mi North 8.1 mph - N/A   Clear
4:54 AM 57.0 °F 44.1 °F 62% 29.91 in 10.0 mi North 6.9 mph - N/A   Clear
5:54 AM 52.0 °F 44.1 °F 74% 29.92 in 9.0 mi WSW 3.5 mph - N/A   Clear
6:54 AM 50.0 °F 44.1 °F 80% 29.94 in 8.0 mi SSE 4.6 mph - N/A   Clear
7:54 AM 53.6 °F 44.6 °F 72% 29.95 in 7.0 mi ESE 4.6 mph - N/A   Clear
8:54 AM 57.0 °F 46.0 °F 67% 29.95 in 8.0 mi SE 3.5 mph - N/A   Clear
9:54 AM 59.0 °F 46.0 °F 62% 29.94 in 9.0 mi ESE 3.5 mph - N/A   Clear
10:54 AM 62.1 °F 46.9 °F 58% 29.93 in 9.0 mi Calm Calm - N/A   Clear
11:54 AM 66.0 °F 48.0 °F 52% 29.92 in 8.0 mi WNW 8.1 mph - N/A   Clear
12:54 PM 69.1 °F 48.0 °F 47% 29.91 in 8.0 mi WNW 8.1 mph - N/A   Clear
1:54 PM 72.0 °F 46.9 °F 41% 29.89 in 9.0 mi Variable 4.6 mph - N/A   Clear
2:54 PM 73.9 °F 48.9 °F 41% 29.87 in 10.0 mi NNW 10.4 mph 17.3 mph N/A   Clear
3:54 PM 73.0 °F 51.1 °F 46% 29.86 in 9.0 mi NW 11.5 mph 17.3 mph N/A   Clear
4:54 PM 73.0 °F 51.1 °F 46% 29.85 in 10.0 mi NW 10.4 mph - N/A   Clear
5:54 PM 71.1 °F 50.0 °F 47% 29.85 in 10.0 mi NW 10.4 mph - N/A   Clear
6:54 PM 68.0 °F 50.0 °F 52% 29.85 in 9.0 mi NNW 5.8 mph - N/A   Clear
7:54 PM 63.0 °F 50.0 °F 63% 29.85 in 9.0 mi North 5.8 mph - N/A   Clear
8:54 PM 62.1 °F 50.0 °F 65% 29.86 in 9.0 mi North 5.8 mph - N/A   Clear
9:54 PM 62.1 °F 50.0 °F 65% 29.88 in 8.0 mi NNE 5.8 mph - N/A   Clear
10:54 PM 59.0 °F 48.9 °F 69% 29.91 in 8.0 mi NW 9.2 mph - N/A   Partly Cloudy
11:54 PM 60.1 °F 48.0 °F 64% 29.93 in 10.0 mi NW 12.7 mph - N/A   Overcast